Time,TemperatureF,DewpointF,PressureIn,WindDirection,WindDirectionDegrees,WindSpeedMPH,WindSpeedGustMPH,Humidity,HourlyPrecipIn,Conditions,Clouds,dailyrainin,SoftwareType,DateUTC
2013-03-20 00:22:00,4.0,-99.9,-100.00,NNE,12,0.0,0.0,-999,-99.99,,,-99.99,,2013-03-20 08:22:00,
2013-03-20 03:23:00,-1.0,-99.9,-100.00,NNE,16,0.0,0.0,-999,-99.99,,,-99.99,,2013-03-20 11:23:00,
2013-03-20 04:22:00,-4.0,-99.9,-100.00,NNE,14,0.0,0.0,-999,-99.99,,,-99.99,,2013-03-20 12:22:00,
2013-03-20 05:22:00,-8.0,-99.9,-100.00,NNE,14,0.0,0.0,-999,-99.99,,,-99.99,,2013-03-20 13:22:00,
2013-03-20 06:23:00,-9.0,-99.9,-100.00,North,0,0.0,0.0,-999,-99.99,,,-99.99,,2013-03-20 14:23:00,
2013-03-20 07:13:00,-10.0,-99.9,-100.00,North,0,0.0,0.0,-999,-99.99,,,-99.99,,2013-03-20 15:13:00,
2013-03-20 09:22:00,-10.0,-99.9,-100.00,North,0,0.0,0.0,-999,-99.99,,,-99.99,,2013-03-20 17:22:00,
2013-03-20 10:22:00,-3.0,-99.9,-100.00,North,0,0.0,0.0,-999,-99.99,,,-99.99,,2013-03-20 18:22:00,
2013-03-20 11:23:00,12.0,-99.9,-100.00,North,0,0.0,0.0,-999,-99.99,,,-99.99,,2013-03-20 19:23:00,
2013-03-20 11:33:00,12.0,-99.9,-100.00,North,0,0.0,0.0,-999,-99.99,,,-99.99,,2013-03-20 19:33:00,
2013-03-20 11:42:00,12.0,-99.9,-100.00,North,0,0.0,0.0,-999,-99.99,,,-99.99,,2013-03-20 19:42:00,
2013-03-20 11:53:00,12.0,-99.9,-100.00,North,0,0.0,0.0,-999,-99.99,,,-99.99,,2013-03-20 19:53:00,
2013-03-20 12:23:00,17.0,-99.9,-100.00,NE,35,2.0,2.0,-999,-99.99,,,-99.99,,2013-03-20 20:23:00,
2013-03-20 12:32:00,17.0,-99.9,-100.00,NE,35,2.0,2.0,-999,-99.99,,,-99.99,,2013-03-20 20:32:00,
2013-03-20 12:43:00,17.0,-99.9,-100.00,NE,35,2.0,2.0,-999,-99.99,,,-99.99,,2013-03-20 20:43:00,
2013-03-20 12:53:00,17.0,-99.9,-100.00,NE,35,2.0,2.0,-999,-99.99,,,-99.99,,2013-03-20 20:53:00,
2013-03-20 14:23:00,23.0,-99.9,-100.00,NNW,336,0.0,0.0,-999,-99.99,,,-99.99,,2013-03-20 22:23:00,
2013-03-20 14:33:00,23.0,-99.9,-100.00,NNW,336,0.0,0.0,-999,-99.99,,,-99.99,,2013-03-20 22:33:00,
2013-03-20 14:43:00,23.0,-99.9,-100.00,NNW,336,0.0,0.0,-999,-99.99,,,-99.99,,2013-03-20 22:43:00,
2013-03-20 14:53:00,23.0,-99.9,-100.00,NNW,336,0.0,0.0,-999,-99.99,,,-99.99,,2013-03-20 22:53:00,
2013-03-20 15:23:00,22.0,-99.9,-100.00,NW,306,0.0,0.0,-999,-99.99,,,-99.99,,2013-03-20 23:23:00,
2013-03-20 15:33:00,22.0,-99.9,-100.00,NW,306,0.0,0.0,-999,-99.99,,,-99.99,,2013-03-20 23:33:00,
2013-03-20 15:43:00,22.0,-99.9,-100.00,NW,306,0.0,0.0,-999,-99.99,,,-99.99,,2013-03-20 23:43:00,
2013-03-20 15:53:00,22.0,-99.9,-100.00,NW,306,0.0,0.0,-999,-99.99,,,-99.99,,2013-03-20 23:53:00,
2013-03-20 16:23:00,22.0,-99.9,-100.00,NW,326,6.0,6.0,-999,-99.99,,,-99.99,,2013-03-21 00:23:00,
2013-03-20 16:33:00,22.0,-99.9,-100.00,NW,326,6.0,6.0,-999,-99.99,,,-99.99,,2013-03-21 00:33:00,
2013-03-20 16:43:00,22.0,-99.9,-100.00,NW,326,6.0,6.0,-999,-99.99,,,-99.99,,2013-03-21 00:43:00,
2013-03-20 16:53:00,22.0,-99.9,-100.00,NW,326,6.0,6.0,-999,-99.99,,,-99.99,,2013-03-21 00:53:00,
2013-03-20 18:23:00,21.0,-99.9,-100.00,North,357,0.0,0.0,-999,-99.99,,,-99.99,,2013-03-21 02:23:00,
2013-03-20 18:33:00,21.0,-99.9,-100.00,North,357,0.0,0.0,-999,-99.99,,,-99.99,,2013-03-21 02:33:00,
2013-03-20 18:42:00,21.0,-99.9,-100.00,North,357,0.0,0.0,-999,-99.99,,,-99.99,,2013-03-21 02:42:00,
2013-03-20 18:52:00,21.0,-99.9,-100.00,North,357,0.0,0.0,-999,-99.99,,,-99.99,,2013-03-21 02:52:00,
2013-03-20 19:22:00,19.0,-99.9,-100.00,SSW,192,0.0,0.0,-999,-99.99,,,-99.99,,2013-03-21 03:22:00,
2013-03-20 19:33:00,19.0,-99.9,-100.00,SSW,192,0.0,0.0,-999,-99.99,,,-99.99,,2013-03-21 03:33:00,
2013-03-20 19:43:00,19.0,-99.9,-100.00,SSW,192,0.0,0.0,-999,-99.99,,,-99.99,,2013-03-21 03:43:00,
2013-03-20 19:53:00,19.0,-99.9,-100.00,SSW,192,0.0,0.0,-999,-99.99,,,-99.99,,2013-03-21 03:53:00,
2013-03-20 21:23:00,10.0,-99.9,-100.00,SSW,192,0.0,0.0,-999,-99.99,,,-99.99,,2013-03-21 05:23:00,
2013-03-20 21:44:00,10.0,-99.9,-100.00,SSW,192,0.0,0.0,-999,-99.99,,,-99.99,,2013-03-21 05:44:00,
2013-03-20 21:52:00,10.0,-99.9,-100.00,SSW,192,0.0,0.0,-999,-99.99,,,-99.99,,2013-03-21 05:52:00,
2013-03-20 22:23:00,4.0,-99.9,-100.00,SSW,192,0.0,0.0,-999,-99.99,,,-99.99,,2013-03-21 06:23:00,
2013-03-20 23:22:00,1.0,-99.9,-100.00,ENE,74,0.0,0.0,-999,-99.99,,,-99.99,,2013-03-21 07:22:00,